Weather History for Cross City, FL

Change the Weather History Date:

Saturday, August 30, 2014

  Actual Average Record
Temperature  
Mean Temperature 83 °F 81 °F  
Max Temperature 94 °F 90 °F 96 °F (2001)
Min Temperature 72 °F 71 °F 70 °F (2001)
Degree Days  
Heating Degree Days 0 0  
Month to date heating degree days 0 0  
Since 1 June heating degree days 0 0  
Since 1 July heating degree days 0 0  
Cooling Degree Days 18 16  
Month to date cooling degree days 550 490  
Year to date cooling degree days 2042 1924  
Since 1 June cooling degree days 1550 1445  
Growing Degree Days 32 (Base 50)    
Moisture  
Dew Point 74 °F    
Average Humidity 78    
Maximum Humidity 94    
Minimum Humidity 52    
Precipitation  
Precipitation 0.16 in 0.24 in 0.96 in (2004)
Month to date precipitation 3.69 7.22  
Year to date precipitation 40.25 35.14  
Sea Level Pressure  
Sea Level Pressure 30.10 in    
Wind  
Wind Speed 3 mph (WNW)    
Max Wind Speed 13 mph    
Max Gust Speed 23 mph    
T = Trace of Precipitation, MM = Missing Value Source: NWS Daily Summary

Daily Weather History Graph

Daily Weather History Graph

Search for Another Location

Airport:

Trip Planner

Search our weather history database for the weather conditions in past years. The results will help you decide how hot, cold, wet, or windy it might be!

Date:

Astronomy

Aug. 30, 2014 Rise Set
Actual Time 7:08 AM EDT 7:56 PM EDT
Civil Twilight 6:44 AM EDT 8:21 PM EDT
Nautical Twilight 6:15 AM EDT 8:49 PM EDT
Astronomical Twilight 5:46 AM EDT 9:19 PM EDT
Moon 11:31 AM EDT 10:55 PM EDT
Length of Visible Light 13h 36m
Length of Day
12h 48m
Waxing Crescent, 23% of the Moon is Illuminated
Aug 30
Waxing Crescent
Sep 2
First Quarter
Sep 8
Full
Sep 15
Last Quarter
Sep 24
New

Hourly Weather History & Observations

Time (EDT) Temp. Heat Index Dew Point Humidity Pressure Visibility Wind Dir Wind Speed Gust Speed Precip Events Conditions
12:53 AM 75.9 °F - 72.0 °F 87% 30.10 in - Calm Calm - N/A   Unknown
1:53 AM 75.0 °F - 72.0 °F 90% 30.11 in - Calm Calm - N/A   Unknown
2:53 AM 73.9 °F - 71.1 °F 91% 30.09 in - Calm Calm - N/A   Unknown
3:53 AM 73.0 °F - 71.1 °F 93% 30.10 in - Calm Calm - N/A   Unknown
4:53 AM 73.0 °F - 70.0 °F 90% 30.09 in - Calm Calm - N/A   Unknown
5:53 AM 73.0 °F - 70.0 °F 90% 30.10 in - Calm Calm - 0.01 in   Unknown
6:53 AM 72.0 °F - 70.0 °F 93% 30.11 in - Calm Calm - 0.01 in   Unknown
7:53 AM 75.0 °F - 73.0 °F 94% 30.12 in - Calm Calm - 0.01 in   Unknown
8:53 AM 81.0 °F 87.3 °F 75.9 °F 85% 30.12 in - Calm Calm - 0.01 in   Unknown
9:53 AM 87.1 °F 97.3 °F 75.9 °F 69% 30.13 in - Calm Calm - N/A   Unknown
10:53 AM 89.1 °F 99.1 °F 75.0 °F 63% 30.13 in - Calm Calm - 0.01 in   Unknown
11:53 AM 90.0 °F 99.0 °F 73.9 °F 59% 30.13 in - ENE 5.8 mph - N/A   Unknown
12:53 PM 93.0 °F 103.2 °F 73.9 °F 54% 30.11 in - Variable 4.6 mph - N/A   Unknown
1:53 PM 91.0 °F 100.4 °F 73.9 °F 57% 30.09 in - South 5.8 mph - N/A   Unknown
2:53 PM 89.1 °F 100.2 °F 75.9 °F 65% 30.08 in - West 6.9 mph - N/A   Unknown
3:53 PM 91.9 °F 105.9 °F 77.0 °F 62% 30.06 in - SW 8.1 mph - N/A   Unknown
4:53 PM 89.1 °F 104.4 °F 79.0 °F 72% 30.04 in - SW 3.5 mph - 0.01 in   Unknown
5:53 PM 86.0 °F 93.8 °F 73.9 °F 67% 30.05 in - North 9.2 mph - N/A   Unknown
6:53 PM 84.0 °F 91.9 °F 75.0 °F 74% 30.04 in - Calm Calm - N/A   Unknown
7:53 PM 81.0 °F 86.7 °F 75.0 °F 82% 30.06 in - NW 4.6 mph - N/A   Unknown
8:53 PM 81.0 °F 86.7 °F 75.0 °F 82% 30.07 in - NW 4.6 mph - 0.01 in   Unknown
9:53 PM 81.0 °F 86.7 °F 75.0 °F 82% 30.09 in - NNW 3.5 mph - 0.01 in   Unknown
10:53 PM 81.0 °F 86.7 °F 75.0 °F 82% 30.13 in - ENE 6.9 mph - N/A   Unknown
11:53 PM 75.0 °F - 72.0 °F 90% 30.14 in - SE 4.6 mph - 0.01 in   Unknown